Wind_Speed
32 33 34 34 36 36 37 37 37 37 36 36 36 37 37 37 37 35 33 31 31 32 30 27 27 26 24 23 20 19 18 16 15 14 14 14 13 12 11 11 12 13 13
37 38 38 39 40 40 40 40 40 40 40 41 41 40 40 40 40 41 40 37 37 33 34 33 32 30 28 26 24 21 19 18 17 16 15 16 15 15 15 14 13 14 15
41 42 40 40 38 38 37 37 37 38 38 39 41 41 43 43 43 43 45 45 42 40 37 34 36 35 30 29 28 25 22 20 19 19 18 17 17 17 17 17 17 16 16
40 38 37 37 36 36 37 37 37 36 37 39 40 40 41 43 44 46 47 47 47 46 43 40 38 37 37 35 30 29 27 25 23 22 21 21 20 19 20 21 20 20 19
37 36 35 35 34 34 34 34 34 35 34 36 39 41 42 43 44 45 47 48 49 49 50 46 42 40 50 33 33 31 30 30 28 28 21 24 24 23 23 24 24 23 22
33 33 33 34 33 32 32 31 31 30 30 30 31 33 35 36 38 40 43 47 49 51 51 53 50 52 46 43 39 33 32 31 32 27 28 27 26 26 25 27 28 30 25
32 32 32 32 29 27 25 23 22 22 24 27 28 27 28 30 32 33 36 38 42 49 51 52 55 55 51 45 39 35 35 33 32 27 29 29 28 30 29 30 30 30 29
28 26 23 19 15 14 15 17 19 20 22 26 27 28 28 24 29 31 33 36 37 40 44 49 51 54 55 45 41 43 32 37 36 33 30 30 31 30 30 28 28 31 33
17 16 14 11 10 11 14 17 19 20 19 22 27 29 32 32 27 21 29 32 32 31 34 39 42 44 47 47 39 41 41 38 35 40 35 33 31 30 30 29 30 31 28
10 9 8 9 10 12 13 16 18 21 21 20 20 26 29 32 34 35 24 24 25 26 28 26 31 34 39 43 43 36 31 30 40 32 24 25 31 31 31 31 29 29 30
7 7 8 10 11 11 12 14 18 20 22 22 22 21 22 24 28 32 34 15 21 24 27 25 17 20 27 34 36 33 31 28 27 31 30 28 26 25 27 28 30 30 35
6 7 8 9 10 11 13 14 16 18 20 22 22 23 23 22 22 25 27 17 16 18 24 30 27 17 14 19 22 28 27 28 29 28 27 30 28 28 30 32 35 36 38
5 7 8 8 10 12 13 14 16 17 18 20 21 22 23 24 24 23 23 18 12 6 14 16 19 25 30 13 21 27 25 26 26 27 29 30 30 31 33 33 34 35 38
6 8 9 10 11 13 14 15 16 17 18 19 21 22 22 22 22 21 19 19 11 5 2 6 11 21 10 15 20 22 25 27 27 28 29 31 33 34 34 35 36 36 37
7 8 9 11 12 14 15 15 16 17 18 19 20 20 22 22 22 20 17 17 8 2 5 8 10 12 18 21 20 23 26 28 30 32 33 34 36 36 37 39 41 43 45
9 10 11 12 13 14 16 16 17 17 18 18 19 20 19 20 21 20 18 10 4 9 6 10 12 13 15 19 22 24 27 29 30 32 35 36 38 41 41 43 43 43 44
12 12 13 14 15 16 17 18 18 17 18 18 18 19 19 19 19 18 16 14 11 14 14 11 14 16 17 19 20 22 24 26 28 30 31 33 34 36 37 37 37 37 38
14 14 15 16 17 18 19 19 19 19 18 19 19 19 19 19 19 18 17 15 11 11 12 13 13 14 17 18 21 22 23 23 24 24 26 28 30 32 33 33 34 35 35
16 17 18 18 18 19 20 21 20 20 20 20 20 20 19 19 18 18 18 17 16 15 14 12 12 14 17 18 20 22 23 23 24 25 25 26 28 28 28 27 28 27 29
19 19 20 20 20 20 22 23 22 22 22 22 21 21 19 19 19 19 18 17 17 15 15 16 15 15 16 17 19 21 23 24 24 24 25 25 25 25 26 27 29 30 32
21 22 23 22 22 23 23 24 25 24 24 24 24 24 22 22 21 20 19 19 19 18 18 16 16 17 18 19 20 20 20 22 23 24 26 27 27 27 28 29 29 29 31
24 25 25 25 25 27 27 27 27 27 27 26 26 26 25 24 23 22 21 21 20 20 21 20 20 20 20 21 22 22 21 21 21 23 24 26 27 27 28 29 29 29 31
28 27 27 28 28 29 31 30 31 30 30 30 29 28 27 27 26 25 23 23 22 21 22 23 22 23 23 24 24 24 24 24 24 24 25 26 28 28 29 30 31 31 31
31 31 31 32 31 32 34 34 34 33 33 32 32 30 29 29 29 28 27 25 24 24 24 23 24 25 25 26 25 25 26 26 25 25 26 26 28 29 30 31 31 32 33
34 34 35 35 35 35 37 37 38 36 35 35 35 32 31 31 30 30 29 29 27 27 26 26 26 26 26 27 27 26 26 27 27 26 28 28 28 30 31 32 33 33 34
37 37 37 37 38 37 39 40 41 41 39 38 37 35 34 32 32 32 31 31 29 29 28 29 28 28 29 28 27 27 27 27 27 27 27 29 29 30 32 31 32 33 34
Wind_Direction
291 291 290 288 286 286 285 283 281 279 278 277 275 274 271 268 267 263 262 262 264 264 263 260 262 264 262 265 266 267 266 263 261 263 267 270 272 274 275 277 283 284 281
291 290 289 289 289 287 286 284 282 279 278 278 277 274 272 270 267 265 264 261 260 257 262 257 255 255 257 257 258 259 262 265 263 259 259 262 266 269 268 266 266 271 274
291 291 289 288 286 286 285 283 282 282 281 277 276 274 273 271 268 264 263 260 258 258 253 260 257 250 251 253 253 253 253 256 258 256 254 253 257 261 262 265 265 263 266
291 291 290 289 288 287 286 285 284 282 282 282 280 278 274 272 269 267 264 262 259 256 258 252 250 258 250 248 250 248 250 249 249 245 250 253 258 262 266 264 263 264 261
292 292 292 291 289 288 287 287 287 288 285 285 285 283 280 277 273 269 266 263 260 257 255 254 253 254 249 245 243 243 247 250 252 258 253 256 259 265 271 266 262 259 262
292 294 292 290 289 288 287 287 288 290 292 291 291 289 286 283 279 276 272 266 262 258 254 250 247 247 255 252 242 242 244 246 259 250 251 253 255 261 271 272 270 263 261
295 295 294 293 289 287 289 291 293 300 301 297 295 296 294 290 286 280 277 274 266 261 258 255 251 248 252 252 262 243 243 246 244 248 249 253 254 256 267 272 268 264 266
293 292 296 300 298 294 299 304 307 308 307 301 304 304 304 291 290 287 283 276 268 263 257 255 253 250 249 251 247 244 250 234 242 251 249 252 254 261 264 268 265 267 271
287 291 294 298 304 306 311 314 312 315 317 313 313 313 314 317 311 291 289 281 268 264 260 256 256 252 248 246 250 250 253 254 243 247 250 249 253 257 259 262 266 268 270
288 287 298 309 311 316 316 315 321 324 325 322 324 317 320 318 318 318 311 275 270 255 267 262 258 252 249 243 241 246 251 251 256 257 256 250 261 259 256 260 265 268 275
282 294 309 317 315 315 317 325 323 324 329 330 332 330 328 322 315 317 320 296 256 248 252 247 247 246 244 243 238 242 246 245 251 255 258 260 251 250 251 254 256 262 261
282 310 314 309 317 323 328 321 322 325 330 335 334 337 342 341 334 329 325 317 305 239 249 258 234 222 225 224 230 243 246 245 244 244 243 247 253 253 258 263 260 261 261
307 304 305 322 329 329 322 323 321 323 333 332 334 345 346 349 348 340 333 329 314 275 252 258 300 247 242 219 219 229 238 239 241 245 249 254 259 260 259 260 260 261 265
296 305 323 330 335 326 323 321 324 328 332 330 337 346 347 348 350 348 339 335 327 313 302 268 278 292 299 225 237 231 234 237 245 250 255 258 258 261 262 263 263 264 266
291 310 319 329 331 326 320 324 325 327 330 334 338 343 347 348 347 348 345 338 337 118 236 258 249 265 273 274 272 264 258 256 256 258 260 262 262 261 263 266 269 271 272
295 304 314 323 326 323 320 325 324 325 328 334 337 339 343 342 346 348 345 338 287 279 279 244 256 263 254 251 254 254 254 255 255 256 258 260 262 263 265 266 269 271 272
292 301 311 316 318 319 322 321 319 322 324 329 333 336 338 338 339 341 346 342 327 306 297 270 258 255 265 270 269 264 259 258 258 260 262 264 266 268 271 274 276 276 276
290 299 305 307 311 316 318 317 317 316 320 324 329 331 332 333 332 332 334 335 333 326 321 315 298 283 276 275 275 276 275 275 275 274 273 273 273 273 274 275 276 276 277
289 294 299 301 307 311 311 312 312 314 317 318 320 322 325 327 327 326 324 325 323 319 313 306 298 293 289 286 285 282 281 279 277 276 275 276 276 277 278 278 278 279 281
285 290 293 295 302 304 305 307 309 310 310 310 310 311 314 317 319 319 317 316 314 310 305 303 298 290 287 286 285 286 287 285 284 284 284 282 282 281 280 279 279 280 280
281 285 287 292 297 298 300 302 304 306 307 307 308 308 310 310 311 311 311 310 308 307 305 302 299 296 295 292 291 289 284 279 279 280 281 283 283 280 280 280 278 278 280
277 281 286 290 292 294 296 298 300 302 302 301 302 302 303 304 304 305 306 305 304 303 301 300 300 298 296 294 292 290 287 284 281 277 274 276 278 279 280 283 284 282 281
274 278 282 285 287 289 291 293 296 298 298 299 299 299 300 300 299 299 299 299 299 297 295 295 294 293 294 294 293 291 289 286 284 282 280 281 282 283 283 282 283 283 282
273 276 279 282 284 286 288 291 293 295 296 297 296 297 296 296 295 296 296 296 296 295 292 291 290 290 290 290 289 287 287 287 287 286 284 284 284 285 285 285 285 284 283
273 275 277 280 283 284 286 289 290 292 293 294 293 294 292 291 291 291 292 292 293 293 292 290 289 290 290 290 290 289 288 288 287 287 287 287 285 284 284 285 285 285 285
272 275 278 281 283 285 287 288 289 291 293 292 291 291 290 289 289 289 289 290 292 290 290 290 290 291 292 292 289 288 288 288 287 286 285 284 286 286 284 283 284 284 285
Height
3151 3149 3147 3144 3142 3140 3138 3138 3136 3135 3134 3132 3131 3130 3130 3129 3129 3128 3128 3128 3128 3128 3128 3129 3129 3130 3130 3130 3131 3131 3130 3130 3129 3130 3131 3131 3130 3130 3129 3129 3130 3130 3131
3143 3142 3140 3137 3135 3133 3130 3129 3127 3126 3125 3123 3123 3122 3121 3120 3120 3119 3120 3120 3120 3121 3121 3121 3121 3122 3123 3124 3124 3125 3126 3126 3126 3125 3126 3126 3126 3126 3126 3126 3126 3127 3127
3136 3133 3131 3129 3126 3124 3122 3120 3118 3117 3116 3115 3113 3113 3111 3110 3110 3110 3109 3110 3111 3111 3111 3112 3113 3114 3116 3116 3118 3118 3119 3120 3121 3121 3121 3121 3122 3122 3122 3122 3122 3122 3123
3127 3125 3123 3120 3118 3116 3114 3111 3109 3108 3106 3105 3103 3102 3101 3100 3099 3099 3098 3099 3100 3102 3102 3103 3104 3105 3106 3108 3109 3111 3112 3112 3113 3114 3116 3117 3117 3117 3118 3118 3118 3118 3118
3120 3118 3115 3112 3110 3109 3106 3104 3102 3099 3099 3097 3093 3091 3090 3088 3088 3087 3086 3087 3087 3089 3091 3093 3095 3095 3092 3096 3098 3101 3104 3105 3105 3108 3108 3111 3112 3113 3113 3113 3113 3113 3114
3113 3111 3108 3105 3103 3101 3099 3097 3095 3094 3091 3088 3086 3083 3081 3079 3077 3076 3076 3075 3075 3074 3075 3078 3081 3082 3084 3087 3089 3093 3095 3097 3099 3099 3103 3105 3106 3107 3108 3108 3108 3108 3109
3107 3104 3101 3098 3096 3095 3093 3092 3090 3089 3087 3082 3080 3077 3075 3072 3070 3067 3066 3064 3063 3062 3063 3065 3067 3070 3072 3076 3072 3079 3087 3088 3090 3092 3094 3097 3099 3100 3101 3102 3102 3103 3103
3100 3098 3096 3093 3092 3091 3090 3088 3087 3086 3083 3077 3073 3069 3067 3070 3063 3060 3057 3054 3051 3049 3050 3051 3053 3058 3062 3067 3070 3075 3071 3076 3080 3084 3086 3089 3093 3094 3095 3095 3095 3096 3097
3096 3095 3094 3092 3091 3089 3087 3086 3083 3081 3080 3075 3069 3063 3058 3054 3054 3058 3051 3045 3042 3040 3040 3041 3044 3046 3051 3056 3061 3065 3066 3068 3069 3075 3077 3081 3085 3087 3088 3089 3089 3090 3091
3094 3093 3092 3090 3089 3088 3086 3084 3081 3077 3075 3072 3068 3062 3056 3050 3043 3040 3046 3038 3035 3035 3035 3035 3036 3040 3043 3047 3052 3057 3059 3061 3064 3064 3067 3074 3077 3079 3081 3082 3082 3083 3084
3092 3091 3090 3089 3088 3086 3084 3081 3078 3075 3071 3067 3063 3061 3055 3049 3042 3036 3030 3033 3030 3030 3030 3031 3032 3034 3036 3039 3045 3050 3054 3057 3058 3061 3065 3069 3071 3072 3073 3073 3075 3075 3075
3090 3090 3089 3088 3086 3084 3081 3079 3076 3073 3069 3065 3061 3056 3049 3045 3041 3034 3028 3025 3025 3027 3026 3025 3029 3030 3031 3035 3040 3045 3048 3052 3054 3057 3060 3064 3065 3064 3065 3067 3067 3067 3067
3089 3089 3088 3085 3083 3081 3079 3076 3074 3071 3067 3064 3060 3053 3046 3041 3037 3032 3027 3025 3024 3024 3024 3023 3023 3027 3027 3028 3035 3039 3044 3047 3049 3051 3053 3056 3057 3058 3058 3058 3059 3060 3060
3088 3087 3085 3083 3080 3079 3077 3074 3072 3068 3065 3062 3057 3051 3046 3040 3036 3032 3028 3024 3023 3024 3024 3024 3024 3022 3023 3029 3032 3035 3039 3042 3044 3046 3046 3047 3048 3049 3050 3050 3052 3052 3052
3086 3084 3082 3080 3078 3077 3075 3072 3069 3066 3063 3059 3054 3050 3045 3041 3037 3033 3029 3026 3023 3024 3025 3024 3023 3024 3025 3027 3028 3031 3034 3036 3037 3038 3039 3040 3041 3042 3043 3043 3043 3043 3043
3083 3081 3080 3078 3076 3075 3072 3069 3067 3064 3061 3056 3052 3048 3045 3041 3037 3033 3030 3027 3026 3024 3024 3024 3023 3023 3023 3024 3025 3027 3028 3029 3030 3030 3031 3032 3033 3033 3033 3033 3033 3033 3032
3080 3079 3077 3075 3074 3072 3069 3067 3065 3062 3058 3053 3050 3046 3043 3040 3037 3033 3030 3028 3026 3025 3023 3022 3021 3021 3022 3022 3022 3023 3024 3024 3024 3025 3025 3026 3025 3025 3025 3025 3024 3024 3022
3076 3075 3074 3072 3071 3068 3067 3065 3062 3059 3056 3052 3048 3045 3041 3038 3035 3033 3030 3027 3025 3023 3022 3021 3020 3020 3019 3019 3018 3018 3019 3018 3019 3019 3019 3019 3018 3018 3017 3017 3016 3016 3014
3072 3071 3070 3069 3066 3064 3063 3061 3058 3055 3052 3049 3045 3042 3039 3036 3033 3030 3028 3026 3023 3021 3019 3018 3017 3017 3016 3016 3015 3013 3013 3013 3013 3013 3012 3011 3010 3010 3009 3009 3007 3007 3005
3068 3067 3066 3064 3062 3060 3059 3056 3054 3051 3048 3044 3041 3038 3035 3032 3030 3027 3025 3023 3021 3019 3017 3015 3014 3012 3011 3011 3010 3008 3006 3005 3005 3005 3004 3003 3002 3002 3002 3001 3000 2999 2997
3063 3062 3061 3059 3057 3055 3053 3051 3049 3046 3043 3040 3037 3034 3031 3028 3026 3024 3022 3019 3017 3015 3014 3012 3011 3009 3007 3006 3004 3003 3002 3000 2999 2998 2997 2995 2995 2995 2993 2993 2992 2991 2989
3058 3057 3055 3053 3051 3049 3047 3045 3043 3040 3038 3035 3032 3029 3026 3023 3021 3019 3017 3015 3013 3011 3009 3007 3006 3004 3002 3001 3000 2998 2997 2996 2996 2994 2992 2990 2988 2987 2986 2984 2983 2982 2980
3051 3049 3048 3046 3045 3043 3040 3038 3035 3034 3032 3029 3026 3023 3020 3017 3015 3013 3011 3009 3007 3005 3003 3002 3000 2998 2996 2994 2993 2991 2990 2989 2988 2986 2985 2983 2981 2979 2977 2976 2974 2973 2972
3043 3042 3040 3038 3038 3036 3033 3030 3028 3026 3024 3022 3019 3017 3014 3011 3008 3007 3005 3003 3001 2999 2997 2995 2994 2992 2990 2988 2986 2984 2982 2981 2980 2979 2976 2976 2973 2971 2970 2968 2967 2966 2964
3034 3033 3032 3030 3029 3028 3024 3022 3019 3017 3016 3014 3010 3009 3006 3003 3001 2999 2998 2995 2994 2992 2990 2988 2986 2984 2982 2981 2979 2977 2976 2974 2973 2972 2969 2968 2966 2964 2962 2960 2958 2957 2955
3025 3024 3023 3022 3020 3019 3015 3013 3010 3008 3007 3005 3002 3001 2997 2996 2993 2991 2990 2988 2986 2984 2983 2981 2979 2977 2975 2973 2971 2969 2968 2966 2965 2964 2962 2960 2959 2957 2955 2953 2950 2947 2945